Location: Le Petit-Vavre
(46.5081°N, 1.5239°E)
Time: 20:52:08
(UTC+00:00)

H-2A R/B - Pass Details

Date: 03 March 2021
Orbit: 732 x 837 km, 98.2° (Epoch: 20 April)

Event Time Altitude Azimuth Distance (km) Brightness Sun altitude
Rises 18:00:47 0° 151° (SSE) 3,367 5.1 -3.9°
Reaches altitude 10° 18:03:10 10° 147° (SSE) 2,443 4.3 -4.3°
Maximum altitude 18:08:27 55° 70° (ENE) 1,001 2.3 -5.2°
Drops below altitude 10° 18:13:46 10° 354° (N) 2,455 4.7 -6.1°
Sets 18:16:10 0° 351° (N) 3,386 5.4 -6.5°
